Cancun International Airp, Mexico

2:38 PM EST on September 29, 2016 (GMT -0500)
Cancun International

Weather History for MMUN - February, 2013

Change the Weather History Date:

Thursday, February 21, 2013

  Actual Average Record
Temperature  
Mean Temperature 80 °F -  
Max Temperature 84 °F 83 °F 91 °F (1999)
Min Temperature 75 °F 66 °F 60 °F (2000)
Cooling Degree Days 14    
Growing Degree Days 30 (Base 50)    
Moisture  
Dew Point 71 °F    
Average Humidity 77    
Maximum Humidity 89    
Minimum Humidity 66    
Precipitation  
Precipitation 0.00 in - - ()
Sea Level Pressure  
Sea Level Pressure 29.94 in    
Wind  
Wind Speed 9 mph ()    
Max Wind Speed 18 mph    
Max Gust Speed -    
Visibility 6.9 miles    
Events      
Averages and records for this station are not official NWS values.
T = Trace of Precipitation, MM = Missing Value Source: Averaged Metar Reports

Daily Weather History Graph

Daily Weather History Graph

Search for Another Location

Airport or City:

Trip Planner

Search our weather history database for the weather conditions in past years. The results will help you decide how hot, cold, wet, or windy it might be!

Date:

Astronomy

Feb. 21, 2013 Rise Set
Actual Time 6:13 AM CST 5:48 PM CST
Civil Twilight 5:51 AM CST 6:11 PM CST
Nautical Twilight 5:25 AM CST 6:37 PM CST
Astronomical Twilight 4:59 AM CST 7:03 PM CST
Moon 2:21 PM CST (2/21) 2:58 AM CST (2/21)
Length of Visible Light 12h 20m
Length of Day
11h 35m
Waxing Gibbous, 84% of the Moon is Illuminated
Feb 21
Waxing Gibbous
Feb 25
Full
Mar 4
Last Quarter
Mar 11
New
Mar 19
First Quarter

Hourly Weather History & Observations

Time (CST) Temp. Heat Index Dew Point Humidity Pressure Visibility Wind Dir Wind Speed Gust Speed Precip Events Conditions
12:45 AM 77.0 °F - 71.6 °F 83% 29.94 in 7.0 mi SE 11.5 mph - N/A   Clear
1:44 AM 75.2 °F - 71.6 °F 89% 29.92 in 7.0 mi SE 6.9 mph - N/A   Partly Cloudy
2:46 AM 75.2 °F - 71.6 °F 89% 29.91 in 7.0 mi SE 9.2 mph - N/A   Scattered Clouds
3:45 AM 75.2 °F - 71.6 °F 89% 29.91 in 7.0 mi ESE 5.8 mph - N/A   Scattered Clouds
4:44 AM 75.2 °F - 71.6 °F 89% 29.91 in 7.0 mi ESE 5.8 mph - N/A   Scattered Clouds
5:43 AM 77.0 °F - 71.6 °F 83% 29.93 in 7.0 mi ESE 8.1 mph - N/A   Scattered Clouds
6:42 AM 77.0 °F - 71.6 °F 83% 29.94 in 7.0 mi ESE 8.1 mph - N/A   Scattered Clouds
7:47 AM 80.6 °F 84.6 °F 71.6 °F 74% 29.96 in 7.0 mi SE 17.3 mph - N/A   Scattered Clouds
8:40 AM 82.4 °F 87.2 °F 71.6 °F 70% 29.98 in 7.0 mi SE 16.1 mph - N/A   Scattered Clouds
9:46 AM 82.4 °F 87.2 °F 71.6 °F 70% 30.00 in 7.0 mi SE 12.7 mph - N/A   Scattered Clouds
10:51 AM 84.2 °F 89.6 °F 71.6 °F 66% 29.99 in 7.0 mi East 13.8 mph - N/A   Mostly Cloudy
11:45 AM 84.2 °F 89.6 °F 71.6 °F 66% 29.97 in 6.0 mi SE 3.5 mph - N/A   Mostly Cloudy
12:40 PM 82.4 °F 87.2 °F 71.6 °F 70% 29.95 in 6.0 mi ESE 12.7 mph - N/A   Mostly Cloudy
1:40 PM 82.4 °F 86.3 °F 69.8 °F 66% 29.92 in 6.0 mi SE 5.8 mph - N/A   Mostly Cloudy
2:43 PM 82.4 °F 86.3 °F 69.8 °F 66% 29.92 in 7.0 mi SE 18.4 mph - N/A   Scattered Clouds
3:43 PM 82.4 °F 87.2 °F 71.6 °F 70% 29.90 in 7.0 mi SSE 15.0 mph - N/A   Mostly Cloudy
4:42 PM 80.6 °F 84.6 °F 71.6 °F 74% 29.90 in 7.0 mi SE 15.0 mph - N/A   Mostly Cloudy
5:40 PM 78.8 °F - 71.6 °F 78% 29.92 in 7.0 mi SE 15.0 mph - N/A   Scattered Clouds
6:41 PM 77.0 °F - 71.6 °F 83% 29.93 in 7.0 mi SE 9.2 mph - N/A   Mostly Cloudy
7:43 PM 78.8 °F - 71.6 °F 78% 29.94 in 7.0 mi ESE 11.5 mph - N/A   Mostly Cloudy
8:40 PM 78.8 °F - 71.6 °F 78% 29.95 in 7.0 mi SE 13.8 mph - N/A   Mostly Cloudy
9:45 PM 78.8 °F - 71.6 °F 78% 29.96 in 7.0 mi SE 12.7 mph - N/A   Scattered Clouds
10:45 PM 77.0 °F - 71.6 °F 83% 29.96 in 7.0 mi ESE 8.1 mph - N/A   Scattered Clouds
11:46 PM 77.0 °F - 71.6 °F 83% 29.96 in 7.0 mi SE 10.4 mph - N/A   Scattered Clouds